Regional Weather Roundup
Issued by NWS

Home | Current Version | Previous Version | Text Only | Print | Product List | Glossary Off
Versions: 1 2 3 4 5 6 7 8 9 10 11 12 13 14 15 16 17 18 19 20 21 22 23 24 25 26 27 28 29 30 31 32 33 34 35 36 37 38 39 40 41 42 43 44 45 46 47 48 49 50

000
ASUS43 KTOP 191208
RWRKS

WEATHER ROUNDUP FOR KANSAS
NATIONAL WEATHER SERVICE GOODLAND KS
700 AM CDT FRI SEP 19 2014

NOTE:  "FAIR" INDICATES FEW OR NO CLOUDS BELOW 12,000 FEET WITH NO
SIGNIFICANT WEATHER AND/OR OBSTRUCTIONS TO VISIBILITY.

KSZ001>006-013>018-027>032-041>047-191300-
NORTHWEST KANSAS

CITY           SKY/WX    TMP DP  RH WIND       PRES   REMARKS
GOODLAND       CLEAR     62  59  90 SW14      29.94S
6HR MIN TEMP:  61; 6HR MAX TEMP:  68;

HILL CITY      CLEAR     62  59  90 S5        29.91S
6HR MIN TEMP:  62; 6HR MAX TEMP:  69;

RUSSELL        CLEAR     64  61  90 S12       29.93R
6HR MIN TEMP:  64; 6HR MAX TEMP:  67;

$$

KSZ061>065-074>080-084>089-191300-
SOUTHWEST KANSAS

CITY           SKY/WX    TMP DP  RH WIND       PRES   REMARKS
DODGE CITY     CLEAR     58  55  90 S8        29.98R
6HR MIN TEMP:  58; 6HR MAX TEMP:  68;

ELKHART          N/A     61  57  87 S8          N/A
GARDEN CITY    CLEAR     58  57  97 S7        29.97R
6HR MIN TEMP:  58; 6HR MAX TEMP:  63;

GREAT BEND     CLEAR     63  59  88 S7        29.97R
LIBERAL        CLEAR     59  54  82 SW6       30.01R
PRATT          CLEAR     61  59  94 S6        29.99R FOG
$$

KSZ066>073-081>083-090>101-191300-
SOUTHEAST KANSAS

CITY           SKY/WX    TMP DP  RH WIND       PRES   REMARKS
CHANUTE        MOCLDY    62  62 100 SE7       30.01R
6HR MIN TEMP:  62; 6HR MAX TEMP:  65;

COFFEYVILLE    CLEAR     63  61  93 CALM      30.00R
6HR MIN TEMP:  63; 6HR MAX TEMP:  66;

HUTCHINSON     CLEAR     63  61  93 S6        29.97R
6HR MIN TEMP:  63; 6HR MAX TEMP:  66;

MEDICINE LODGE   N/A     64  63  96 SE3       29.97R
NEWTON         CLEAR     63  57  82 SE8       30.00R
PARSONS        MOCLDY    64  63  96 CALM      30.01S
6HR MIN TEMP:  63; 6HR MAX TEMP:  67;

WICHITA INTL   PTCLDY    65  62  90 S6        29.97R
6HR MIN TEMP:  65; 6HR MAX TEMP:  68;

WICHITA JABRA  CLEAR     64  62  93 S8        29.98R
6HR MIN TEMP:  63; 6HR MAX TEMP:  66;

WICHITA MCCONL CLEAR     64  64 100 SE8       29.98R
WINFIELD       CLEAR     65  63  93 SE5       30.00R
6HR MIN TEMP:  64; 6HR MAX TEMP:  67;

$$

KSZ007>012-019>026-033>040-048>060-102>105-191300-
NORTHEAST KANSAS

CITY           SKY/WX    TMP DP  RH WIND       PRES   REMARKS
CONCORDIA      CLEAR     63  63 100 S12       29.94R
6HR MIN TEMP:  63; 6HR MAX TEMP:  67;

EMPORIA        FOG       63  63 100 S13       29.99S VSB 1/2
6HR MIN TEMP:  62; 6HR MAX TEMP:  64;

LAWRENCE       CLOUDY    62  61  96 SE7       30.01S FOG
6HR MIN TEMP:  58; 6HR MAX TEMP:  62;

MANHATTAN      CLEAR     62  61  96 CALM      29.97R
6HR MIN TEMP:  61; 6HR MAX TEMP:  66;

MARYSVILLE     CLEAR     63  61  94 S8        29.96R
OLATHE IND     CLOUDY    62  61  96 S8        30.02R
6HR MIN TEMP:  60; 6HR MAX TEMP:  62;

OLATHE EXE     CLOUDY    61  61 100 SE7       30.01S FOG
SALINA         CLEAR     63  61  93 S6        29.95S
6HR MIN TEMP:  63; 6HR MAX TEMP:  68;

TOPEKA BILLARD CLOUDY    64  63  96 SE7       30.00R
6HR MIN TEMP:  62; 6HR MAX TEMP:  64;

TOPEKA FORBES  CLOUDY    63  61  93 SE9       30.00R FOG
6HR MIN TEMP:  61; 6HR MAX TEMP:  63;

$$


USA.gov is the U.S. government's official web portal to all federal, state and local government web resources and services.